[[{"header":{"parameterUnit":"m.s-1","parameterCategory":1,"la1":30.2991,"la2":30.254,"lo1":-89.0895,"lo2":-89.0444,"dy":0.0017,"dx":0.0017,"nx":28,"ny":28,"refTime":"2024-03-13T03:00:00:Z","depth":0,"parameterNumber":2,"parameterNumberName":"U-component_of_WINDS"},"data":[0,0,0,0,0,0,0,0,0,0,0,0,0,0,0,0,0,0,0,0,0,0,0,0,0,0,0,0,0,0,0,0,0,0,0,0,0,0,0,0,0,0,0,0,0,0,0,0,0,0,0,0,0,0,0,0,0,0,-4.9787,-4.9788,0,-4.9886,-4.9887,-4.9888,-4.9858,-4.9856,-4.9853,-4.9852,-4.9949,-4.9954,-4.9958,0,0,0,0,0,0,0,0,0,0,0,0,0,-4.9571,-4.9575,-4.9787,-4.9788,-4.979,-4.9886,-4.9887,-4.9888,-4.9858,-4.9855,-4.9853,-4.9851,-4.9948,-4.9953,-4.9959,0,0,0,0,0,0,0,0,0,0,0,0,0,-4.9666,-4.9576,-4.9787,-4.9786,-4.9787,-4.9885,-4.9887,-4.9889,-4.9858,-4.9855,-4.9852,-4.9849,-4.9946,-4.9953,-4.9959,-5.0063,0,0,-4.998,-4.9983,0,0,0,0,0,0,0,0,-4.9661,-4.9674,-4.9785,-4.9786,-4.9787,-4.9856,-4.9846,-4.9947,-4.9859,-4.9831,-4.9851,-4.9848,-4.9921,-4.9929,-4.9954,-5.0068,-5.0072,-4.9981,-4.9985,-4.9988,-4.999,0,0,0,0,0,0,0,-4.9654,-4.967,-4.9826,-4.9787,-4.9788,-4.978,-4.979,-4.9865,-4.9892,-4.9833,-4.9831,-4.9844,-4.9921,-4.9948,-4.9957,-5.0073,-4.998,-4.9987,-4.9991,-4.9993,-5.0277,-5.0281,0,0,0,0,0,0,-4.9647,-4.9665,-4.9823,-4.9829,-4.9715,-4.9787,-4.9798,-4.9837,-4.9891,-4.9896,-4.9846,-4.9842,-4.9938,-4.9949,-4.996,-5.0084,-4.9988,-4.9994,-4.9998,-5.0274,-5.0278,-5.0282,0,0,0,0,0,0,-4.9643,-4.9662,-4.9819,-4.9746,-4.9766,-4.9794,-4.9838,-4.9841,-4.9868,-4.9901,-4.9905,-4.9869,-4.9936,-4.995,-5.0038,-5.0087,-4.9997,-5.0003,-5.027,-5.0275,-5.028,-5.0334,0,0,0,0,0,0,-4.9637,-4.966,-4.97,-4.9748,-4.977,-4.9896,-4.9841,-4.9845,-4.988,-4.9876,-4.9924,-4.9929,-4.9935,-5.0028,-5.0045,-5.0095,-5.0009,-5.0266,-5.0272,-5.0278,-5.0328,-5.0341,-5.0352,0,0,0,0,0,-4.9629,-4.9711,-4.9702,-4.9722,-4.982,-4.9899,-4.9911,-4.9917,-4.9884,-4.9924,-4.9946,-4.9927,-5.008,-5.0037,-5.0056,-5.0109,-5.0262,-5.027,-5.0278,-5.0323,-5.0338,-5.0351,0,0,0,0,0,0,-4.9666,-4.9717,-4.9708,-4.9808,-4.9849,-4.9893,-4.9944,-4.9933,-4.9984,-4.9978,-4.9982,-4.9994,-5.0083,-5.0105,-5.0057,-5.0213,-5.0166,-5.0178,-5.0194,-5.0209,-5.022,-5.0212,-5.0014,0,0,0,0,0,-4.9687,-4.9747,-4.9788,-4.9872,-4.9893,-4.9916,-4.995,-4.9951,-4.9994,-5.0011,-5.0039,-5.008,-5.0138,-5.0175,-5.023,-5.0333,-5.0342,-5.0379,-5.039,-5.04,-5.0409,-5.0464,-5.048,-5.0308,-5.0308,-5.0307,0,0,-4.9728,-4.9763,-4.9801,-4.988,-4.9912,-4.9974,-4.993,-4.9997,-5.0042,-5.0021,-5.0105,-5.0128,-5.0174,-5.027,-5.0314,-5.0291,-5.0459,-5.041,-5.0417,-5.0421,-5.0474,-5.049,-5.0505,-5.0313,-5.0312,-5.0311,0,0,-4.9835,-4.9868,-4.9941,-4.9976,-5.0026,-5.0041,-5.0059,-5.0106,-5.012,-5.0205,-5.0191,-5.0245,-5.0344,-5.0378,-5.0408,-5.0531,-5.0515,-5.0549,-5.0608,-5.0662,-5.0676,-5.0688,-5.073,-5.0745,-5.0559,-5.0559,-5.0559,0,-4.9879,-4.9972,-4.998,-5.0049,-5.0084,-5.007,-5.0144,-5.0177,-5.0242,-5.0266,-5.0241,-5.0366,-5.0396,-5.0499,-5.053,-5.0556,-5.0575,-5.0541,-5.0674,-5.0686,-5.0697,-5.0737,-5.0753,-5.0562,-5.0562,-5.0562,-5.0561,0,-5.0023,-5.0088,-5.0141,-5.0206,-5.0248,-5.0319,-5.0337,-5.0379,-5.0378,-5.0395,-5.0482,-5.052,-5.0581,-5.0607,-5.0606,-5.071,-5.0695,-5.0672,-5.0625,-5.0717,-5.0754,-5.077,-5.0568,-5.0566,-5.0565,-5.0564,0,0,-5.0152,-5.0223,-5.0242,-5.0271,-5.0328,-5.0378,-5.0449,-5.0511,-5.0545,-5.0592,-5.065,-5.0736,-5.0716,-5.075,-5.0754,-5.0802,-5.0895,-5.0773,-5.0774,-5.0792,-5.1011,-5.1025,-5.1043,-5.0887,-5.089,-5.0892,-5.1006,0,-5.0261,-5.0386,-5.0397,-5.0508,-5.0568,-5.0558,-5.0619,-5.066,-5.0679,-5.0732,-5.0753,-5.0813,-5.0783,-5.0804,-5.0851,-5.0874,-5.0939,-5.0866,-5.0939,-5.0942,-5.0924,-5.1063,-5.1078,-5.1183,-5.1021,-5.1024,-5.1025,0,-5.0404,-5.0456,-5.0574,-5.0623,-5.0648,-5.0704,-5.0762,-5.0813,-5.086,-5.0871,-5.0911,-5.0908,-5.0981,-5.0935,-5.1034,-5.0984,-5.1016,-5.1032,-5.1036,-5.104,-5.0986,-5.1068,-5.1217,-5.1232,-5.1049,-5.1047,-5.1046,0,-5.0482,-5.0583,-5.0666,-5.0692,-5.0752,-5.0791,-5.0818,-5.0862,-5.0899,-5.095,-5.0974,-5.1033,-5.1065,-5.111,-5.1124,-5.1089,-5.1222,-5.1177,-5.1231,-5.1231,-5.1256,-5.1254,-5.141,-5.1282,-5.1282,-5.1282,-5.1281,0,-5.0601,-5.0673,-5.0703,-5.0754,-5.0834,-5.0847,-5.0926,-5.0951,-5.0991,-5.1046,-5.1042,-5.1093,-5.111,-5.1164,-5.1176,-5.1255,-5.1271,-5.128,-5.1281,-5.1278,-5.1277,-5.1296,-5.1288,-5.1286,-5.1285,-5.1284,-5.1284,0,-5.0701,-5.0724,-5.0814,-5.0865,-5.0879,-5.0936,-5.0979,-5.1028,-5.1048,-5.1118,-5.1135,-5.1165,-5.123,-5.1249,-5.1326,-5.1334,-5.1427,-5.1423,-5.1411,-5.141,-5.1462,-5.1456,-5.1633,-5.1656,-5.1516,-5.1518,-5.1519,0,-5.0773,-5.0828,-5.0886,-5.0923,-5.0952,-5.1012,-5.105,-5.1066,-5.1106,-5.1165,-5.1207,-5.1271,-5.1322,-5.1426,-5.1454,-5.1513,-5.1509,-5.1568,-5.1518,-5.1513,-5.1507,-5.1502,-5.1507,-5.1575,-5.1577,-5.1578,-5.1579,0,-5.0898,-5.0908,-5.0963,-5.1024,-5.1071,-5.1119,-5.1165,-5.1196,-5.1219,-5.1264,-5.133,-5.1371,-5.1451,-5.1514,-5.1575,-5.1601,-5.1593,-5.1596,-5.1611,-5.1606,-5.1595,-5.1599,-5.1433,-5.159,-5.1589,-5.1588,-5.1588,-5.1587,-5.0984,-5.1033,-5.1081,-5.1144,-5.1181,-5.1225,-5.1274,-5.1301,-5.1357,-5.1424,-5.1431,-5.1502,-5.1549,-5.163,-5.166,-5.1716,-5.1699,-5.1721,-5.1726,-5.1731,-5.1734,-5.159,-5.1727,-5.1727,-5.1727,-5.1727,-5.1726,0,-5.1107,-5.1138,-5.1196,-5.1262,-5.1312,-5.1304,-5.1355,-5.1396,-5.146,-5.1505,-5.1557,-5.1633,-5.1695,-5.173,-5.1792,-5.183,-5.1828,-5.1845,-5.1841,-5.1847,-5.1747,-5.1726,-5.1846,-5.1846,-5.1846,-5.1846,-5.1846,-5.1846,-5.1176,-5.1258,-5.1273,-5.1374,-5.1405,-5.1475,-5.1505,-5.1546,-5.1582,-5.1668,-5.172,-5.1743,-5.1784,-5.185,-5.1906,-5.1915,-5.1936,-5.1955,-5.1962,-5.1866,-5.1854,-5.1842,-5.1823,-5.1961,-5.1961,-5.2057,-5.2058,-5.2058]},{"header":{"parameterUnit":"m.s-1","parameterCategory":1,"la1":30.2991,"la2":30.254,"lo1":-89.0895,"lo2":-89.0444,"dy":0.0017,"dx":0.0017,"nx":28,"ny":28,"refTime":"2024-03-13T03:00:00:Z","depth":0,"parameterNumber":3,"parameterNumberName":"V-component_of_WINDS"},"data":[0,0,0,0,0,0,0,0,0,0,0,0,0,0,0,0,0,0,0,0,0,0,0,0,0,0,0,0,0,0,0,0,0,0,0,0,0,0,0,0,0,0,0,0,0,0,0,0,0,0,0,0,0,0,0,0,0,0,2.3855,2.3856,0,2.3937,2.3938,2.3938,2.3966,2.3966,2.3966,2.3965,2.4044,2.4046,2.4049,0,0,0,0,0,0,0,0,0,0,0,0,0,2.3722,2.3724,2.3855,2.3856,2.3857,2.3937,2.3938,2.3939,2.3966,2.3966,2.3966,2.3965,2.4043,2.4046,2.4049,0,0,0,0,0,0,0,0,0,0,0,0,0,2.3789,2.3725,2.3855,2.3881,2.3884,2.3936,2.3938,2.3939,2.3966,2.3966,2.3965,2.3965,2.4042,2.4046,2.4049,2.4081,0,0,2.406,2.4062,0,0,0,0,0,0,0,0,2.3785,2.3794,2.3876,2.3879,2.3883,2.3941,2.392,2.3986,2.3966,2.3935,2.3965,2.3965,2.401,2.4016,2.4032,2.4085,2.4088,2.4061,2.4063,2.4064,2.4065,0,0,0,0,0,0,0,2.3781,2.3791,2.3887,2.3877,2.3881,2.3888,2.3897,2.3932,2.3974,2.3938,2.394,2.3949,2.4012,2.4029,2.4034,2.4089,2.4061,2.4064,2.4066,2.4067,2.4174,2.4175,0,0,0,0,0,0,2.3772,2.3787,2.3885,2.389,2.3832,2.389,2.39,2.3923,2.3974,2.3981,2.395,2.395,2.4023,2.403,2.4037,2.4079,2.4064,2.4068,2.407,2.4174,2.4175,2.4175,0,0,0,0,0,0,2.3769,2.3781,2.3881,2.3839,2.3852,2.3893,2.3918,2.3924,2.3942,2.3983,2.399,2.396,2.4023,2.4032,2.4071,2.4082,2.4069,2.4073,2.4173,2.4174,2.4175,2.4163,0,0,0,0,0,0,2.3765,2.3779,2.3792,2.3839,2.3854,2.3914,2.3919,2.3926,2.3948,2.395,2.3994,2.4001,2.4023,2.4065,2.4074,2.4087,2.4075,2.4172,2.4173,2.4175,2.4162,2.4163,2.4164,0,0,0,0,0,2.376,2.3784,2.3792,2.3804,2.3871,2.3915,2.3924,2.395,2.3949,2.3962,2.3989,2.3999,2.408,2.4069,2.4079,2.4093,2.4171,2.4173,2.4175,2.4162,2.4163,2.4164,0,0,0,0,0,0,2.3734,2.379,2.38,2.384,2.3873,2.3919,2.3936,2.395,2.3982,2.3982,2.4012,2.4022,2.4059,2.408,2.4067,2.4128,2.4126,2.413,2.4113,2.4114,2.4115,2.4109,2.4078,0,0,0,0,0,2.3734,2.3765,2.3812,2.3842,2.3858,2.3895,2.3915,2.3933,2.3967,2.3981,2.401,2.4042,2.4075,2.4096,2.4128,2.4166,2.4176,2.4181,2.4181,2.4182,2.4185,2.4208,2.4211,2.418,2.418,2.418,0,0,2.3731,2.3766,2.3783,2.3838,2.3865,2.3898,2.3906,2.3939,2.3963,2.3985,2.4024,2.4047,2.4085,2.4124,2.4143,2.4143,2.4196,2.4184,2.4184,2.4187,2.421,2.4213,2.4216,2.4182,2.4181,2.4181,0,0,2.3744,2.3773,2.3803,2.3831,2.3874,2.3899,2.3906,2.3952,2.3968,2.4009,2.4027,2.4056,2.4111,2.4138,2.4159,2.4186,2.4198,2.4196,2.42,2.4223,2.4225,2.4228,2.4239,2.4242,2.4199,2.4199,2.4199,0,2.3735,2.3786,2.3816,2.3849,2.3873,2.3897,2.3928,2.3953,2.4004,2.4019,2.4019,2.4092,2.4119,2.4166,2.4173,2.4188,2.4198,2.4191,2.4223,2.4226,2.4228,2.4239,2.4243,2.4198,2.4198,2.4198,2.4198,0,2.3774,2.3809,2.3827,2.3878,2.3904,2.3936,2.3971,2.3993,2.401,2.4034,2.4076,2.411,2.4151,2.4164,2.4178,2.4213,2.4212,2.4217,2.4216,2.423,2.4241,2.4245,2.4198,2.4198,2.4198,2.4198,0,0,2.377,2.384,2.3847,2.3872,2.3922,2.3949,2.3982,2.4024,2.4044,2.4078,2.4107,2.4156,2.4162,2.4185,2.4204,2.4224,2.4246,2.4227,2.4228,2.423,2.4288,2.4285,2.4289,2.4254,2.4255,2.4255,2.4285,0,2.379,2.3853,2.3882,2.3931,2.3964,2.399,2.4019,2.4053,2.4077,2.4109,2.4135,2.417,2.4174,2.4189,2.421,2.4238,2.4258,2.4237,2.4281,2.4282,2.4271,2.4294,2.429,2.4316,2.429,2.429,2.4291,0,2.3821,2.3859,2.3912,2.3962,2.3977,2.4002,2.4045,2.4075,2.4115,2.4131,2.416,2.4179,2.4215,2.4212,2.4263,2.4248,2.4268,2.4285,2.4287,2.4292,2.4287,2.4301,2.4325,2.4329,2.4297,2.4297,2.4296,0,2.3815,2.3879,2.392,2.394,2.3998,2.4016,2.4041,2.4081,2.4105,2.4142,2.4158,2.4198,2.422,2.425,2.428,2.4274,2.4328,2.4327,2.4343,2.4343,2.4353,2.4352,2.4382,2.4365,2.4365,2.4365,2.4365,0,2.3835,2.3866,2.3918,2.3943,2.398,2.4014,2.4049,2.4076,2.4111,2.4142,2.4165,2.4193,2.423,2.4263,2.4286,2.4326,2.4335,2.435,2.4355,2.4348,2.4346,2.4361,2.436,2.4366,2.4366,2.4365,2.4365,0,2.3833,2.3869,2.3915,2.3969,2.3983,2.4007,2.4053,2.4078,2.4105,2.4144,2.4155,2.4196,2.4237,2.427,2.4321,2.4337,2.4379,2.4385,2.4366,2.4369,2.4384,2.4382,2.4425,2.4433,2.441,2.441,2.441,0,2.3843,2.3869,2.3926,2.3949,2.3975,2.4011,2.4038,2.4073,2.4099,2.4148,2.4168,2.421,2.4246,2.4309,2.4344,2.4384,2.4392,2.4404,2.4398,2.439,2.4393,2.4392,2.4395,2.4404,2.4404,2.4404,2.4404,0,2.3858,2.3876,2.3913,2.3958,2.3989,2.4025,2.4062,2.408,2.4122,2.415,2.4193,2.4221,2.4276,2.4318,2.4363,2.4388,2.4403,2.4407,2.4413,2.4405,2.4394,2.4402,2.4368,2.4405,2.4405,2.4405,2.4405,2.4405,2.3863,2.3888,2.3933,2.3975,2.4008,2.4042,2.407,2.4102,2.4139,2.4187,2.4206,2.425,2.4292,2.4354,2.4379,2.4414,2.4416,2.4424,2.4426,2.4428,2.4428,2.4388,2.4422,2.4422,2.4422,2.4422,2.4422,0,2.388,2.3912,2.395,2.4002,2.4036,2.405,2.4093,2.4119,2.4158,2.4197,2.4233,2.4283,2.4325,2.4364,2.4408,2.4429,2.4437,2.4439,2.4438,2.4444,2.4423,2.4414,2.4432,2.4432,2.4432,2.4432,2.4432,2.4432,2.3893,2.3937,2.396,2.4021,2.4052,2.4097,2.412,2.4153,2.4184,2.424,2.4276,2.4302,2.4341,2.4389,2.4428,2.4438,2.4454,2.4454,2.4466,2.4446,2.4445,2.4444,2.4435,2.4457,2.4457,2.4484,2.4484,2.4484]}]]